Regional Weather Roundup
Issued by NWS Jackson, KY

Home | Current Version | Previous Version | Text Only | Print | Product List | Glossary Off
Versions: 1 2 3 4 5 6 7 8 9 10 11 12 13 14 15 16 17 18 19 20 21 22 23 24 25 26 27 28 29 30 31 32 33 34 35 36 37 38 39 40 41 42 43 44 45 46 47 48 49 50

127
ASUS43 KJKL 211910
RWRJKL

EAST KENTUCKY HOURLY WEATHER ROUNDUP
NATIONAL WEATHER SERVICE JACKSON KY
200 PM EST TUE FEB 21 2017

NOTE: "FAIR" INDICATES FEW OR NO CLOUDS BELOW 12,000 FEET WITH
NO SIGNIFICANT WEATHER AND/OR OBSTRUCTIONS TO VISIBILITY.

* THESE REPORTS ARE NOT UNDER NWS QUALITY CONTROL AND MAY NOT
  REPORT WEATHER SUCH AS PRECIPITATION AND FOG.

KYZ079-080-083-085-087-088-110-112-115-119-120-212000
...EASTERN KENTUCKY...

CITY           SKY/WX    TMP DP  RH WIND       PRES   REMARKS
JACKSON        MOSUNNY   73  42  32 S8        30.02F
LONDON         PTSUNNY   70  42  36 S10       30.01F
SOMERSET*      CLOUDY    68  45  42 SW6       30.01F
MONTICELLO*    CLOUDY    70  50  49 VRB7      30.00F
WILLIAMSBURG*  MOCLDY    68  45  42 SE8       30.00F
MIDDLESBORO*   MOSUNNY   71  44  37 CALM      30.02F
HARLAN APT*    CLOUDY    70  37  30 CALM      30.04F
PIKE CO APT*     N/A     70  37  30 S3        30.04F
MOREHEAD APT*  MOCLDY    72  45  37 S10       30.02F
ASHLAND*       MOSUNNY   73  46  38 S5        29.99F
$$

KYZ035-036-041-042-044-050-067-078-099-212000
...CENTRAL KENTUCKY...

CITY           SKY/WX    TMP DP  RH WIND       PRES   REMARKS
MT STERLING*   CLOUDY    72  46  40 SW12      30.02F
FLEMING/MASON* CLOUDY    70  49  45 SW12      30.01F
DANVILLE*      MOSUNNY   68  45  42 S6        30.00F
LEXINGTON      CLOUDY    70  45  40 S12       29.99F
FRANKFORT      CLOUDY    71  47  42 S8        29.97F
LOUISVILLE     CLOUDY    72  47  40 S8        29.95F
LEBANON*       MOCLDY    70  48  46 S9        29.98F
GLASGOW*       CLOUDY    69  50  50 S9        29.96F
BOWLING GREEN  LGT RAIN  71  53  52 MISG      29.94F
$$

KYZ091>093-OHZ055-061-077-WVZ005-015-034-035-042-212000
...SOUTHERN OHIO/WEST VIRGINIA...

CITY           SKY/WX    TMP DP  RH WIND       PRES   REMARKS
COVINGTON      CLOUDY    67  49  52 SW7       29.99F
COLUMBUS       CLOUDY    66  46  48 SW3       29.98F
DAYTON         CLOUDY    64  46  52 SW14      29.98F
WILMINGTON     CLOUDY    64  49  57 SW7       29.99F
HUNTINGTON     SUNNY     74  40  29 SW6       30.00F
CHARLESTON     MOSUNNY   72  39  30 CALM      30.01F
PINEVILLE*     SUNNY     71  29  21 MISG      30.10F
BECKLEY        SUNNY     62  38  40 S10       30.07F
BLUEFIELD      CLOUDY    59  39  47 S9        30.10F
LOGAN CO APT*    N/A     70  36  28 SW9G17    30.04F
$$

VAZ002-007-008-TNZ017-027-036-066-071-212000
...SOUTHWEST VIRGINIA/EAST TENNESSEE...

CITY           SKY/WX    TMP DP  RH WIND       PRES   REMARKS
WISE*          MOSUNNY   64  34  32 S8        30.09F
JONESVILLE*    MOCLDY    72  39  30 S9        30.06F
ABINGDON*      SUNNY     69  40  35 W12G18    30.08F
BRISTOL        PTSUNNY   68  43  40 S12       30.07F
MORRISTOWN*    CLEAR     70  39  32 CALM      30.02F
SEVIERVILLE*   CLEAR     72  41  33 NE5       30.00F
KNOXVILLE      CLOUDY    71  44  37 SE10      29.99F
LAFOLLETTE*    CLEAR     70  45  40 VRB7G17   30.04F
OAK RIDGE      MOSUNNY   71  44  37 SE10      30.01F
CROSSVILLE     PTSUNNY   63  47  55 SE9G17    30.02F
NASHVILLE      PTSUNNY   69  52  54 S23G33    29.93F
$$

...KEY TO REMARKS...
VSB - VISIBILITY IN MILES
WCI - WIND CHILL INDEX
HX  - HEAT INDEX

$$




USA.gov is the U.S. government's official web portal to all federal, state and local government web resources and services.